OSCAR 7 1 7530U 74089B 26071.97911914 -.00000024 00000-0 14250-3 0 9992 2 7530 101.9967 84.2044 0011950 315.7513 71.8532 12.53696391348469 OSCAR 11 (UOSAT 2) 1 14781U 84021B 26071.82885625 .00001772 00000-0 18702-3 0 9994 2 14781 97.7946 38.5566 0008619 134.6539 225.5383 14.90518657242779 OSCAR 19 (LUSAT) 1 20442U 90005G 26071.62112445 .00000192 00000-0 85151-4 0 9993 2 20442 98.8935 90.7312 0012457 126.4748 233.7585 14.34089426888557 EYESAT A 1 22825U 93061C 26071.71380983 .00000133 00000-0 67474-4 0 9992 2 22825 98.6976 139.1260 0008809 30.7871 329.3826 14.30914229693207 ITAMSAT 1 22826U 93061D 26071.72187373 .00000142 00000-0 70413-4 0 9999 2 22826 98.6924 139.0420 0009024 14.5609 345.5832 14.31338357693511 RADIO ROSTO 1 23439U 94085A 26071.62226791 -.00000043 00000-0 -20523-4 0 9993 2 23439 64.8133 99.3897 0152773 21.4786 339.2459 11.27583882285012 JAS 2 1 24278U 96046B 26071.60397799 .00000008 00000-0 45667-4 0 9994 2 24278 98.5377 293.6293 0349702 347.2088 12.0349 13.53268870460108 TECHSAT 1B 1 25397U 98043D 26071.54984197 .00000125 00000-0 73993-4 0 9996 2 25397 99.0029 61.8925 0002134 115.0247 245.1152 14.24407055437576 ISS (ZARYA) 1 25544U 98067A 26071.86901802 .00011348 00000-0 21655-3 0 9999 2 25544 51.6324 56.6367 0007924 186.1410 173.9482 15.48614629556825 PCSAT 1 26931U 01043C 26071.63164662 .00000164 00000-0 92253-4 0 9995 2 26931 67.0501 134.0045 0007010 265.0968 94.9334 14.31913920276621 SAUDISAT 1C 1 27607U 02058C 26071.98961993 .00002161 00000-0 27188-3 0 9996 2 27607 64.5526 66.5662 0075293 280.0937 79.1681 14.82799323250195 CUTE-1 1 27844U 03031E 26072.00612833 .00000419 00000-0 20026-3 0 9999 2 27844 98.6777 81.7637 0010730 103.8440 256.3934 14.24269354177988 CUBESAT XI 4 1 27848U 03031J 26071.52490780 .00000374 00000-0 18335-3 0 9994 2 27848 98.6808 81.0787 0010480 121.3489 238.8716 14.23563697177626 MOZHAYETS 4 1 27939U 03042A 26071.99974090 .00001473 00000-0 23618-3 0 9990 2 27939 98.3446 253.6527 0010624 208.9286 312.4893 14.73265528201381 CUBESAT XI 5 1 28895U 05043F 26071.97796088 .00002314 00000-0 37351-3 0 9996 2 28895 98.2837 225.6641 0014896 147.5945 212.6179 14.72336828 87591 CUTE-1.7+APD 2 1 32785U 08021C 26071.96404985 .00007964 00000-0 51530-3 0 9990 2 32785 97.8202 51.4943 0009238 7.5944 352.5422 15.08423347970682 SEEDS 1 32791U 08021J 26071.60401122 .00022620 00000-0 79898-3 0 9991 2 32791 97.7518 65.1556 0000957 346.4462 13.6752 15.29223276972516 YUBELEINY 1 32953U 08025A 26072.00747316 .00000029 00000-0 13780-3 0 9995 2 32953 82.5007 55.2582 0019648 157.9973 202.1955 12.43176079807742 KKS-1 (KISEKI) 1 33499U 09002H 26071.90630759 .00002009 00000-0 25492-3 0 9990 2 33499 98.1184 352.8506 0006593 238.2615 121.7956 14.82843591921929 SWISSCUBE 1 35932U 09051B 26071.69360593 .00001487 00000-0 30458-3 0 9997 2 35932 98.4095 337.8898 0007286 144.0492 216.1200 14.62269136875059 BEESAT 1 35933U 09051C 26071.51691407 .00001249 00000-0 26159-3 0 9999 2 35933 98.4025 337.5444 0005513 154.7579 205.3891 14.61540877875062 ITUPSAT 1 1 35935U 09051E 26071.69767748 .00001145 00000-0 24721-3 0 9990 2 35935 98.4111 337.0197 0007476 168.7108 191.4260 14.60275662874658 XIWANG-1 (HOPE-1) 1 36122U 09072B 26071.95295828 -.00000370 00000-0 -85267-3 0 9999 2 36122 100.3918 27.3695 0008105 92.4846 267.7195 13.16434677780348 TISAT 1 1 36799U 10035E 26071.76998423 .00024292 00000-0 89613-3 0 9996 2 36799 98.0642 10.1077 0001764 156.4703 203.6615 15.27784488852962 JUGNU 1 37839U 11058B 26071.61772689 .00000530 00000-0 13730-3 0 9992 2 37839 19.9596 175.1079 0018746 89.4771 54.5382 14.13742598745347 SRMSAT 1 37841U 11058D 26071.88014721 .00000480 00000-0 11685-3 0 9991 2 37841 19.9720 282.3949 0011727 224.2053 250.8798 14.11549135744194 HORYU 2 1 38340U 12025D 26071.78659715 .00004688 00000-0 48703-3 0 9993 2 38340 98.2008 200.9107 0009195 133.6773 226.5207 14.90403653734362 STRAND 1 1 39090U 13009E 26071.97599183 .00000442 00000-0 16312-3 0 9997 2 39090 98.3892 254.5860 0009215 152.3731 207.7947 14.37098215683240 CUBEBUG 1 1 39153U 13018D 26071.98263127 .00005791 00000-0 51263-3 0 9990 2 39153 98.1535 227.7478 0013204 106.0692 254.1983 14.96628088696673 ZACUBE 1 39417U 13066B 26071.46451722 .00004995 00000-0 39525-3 0 9991 2 39417 97.8162 33.3027 0042859 210.7358 149.1354 15.00356925666226 TRITON 1 1 39427U 13066M 26071.98131001 .00003804 00000-0 46202-3 0 9992 2 39427 97.8285 343.9953 0090355 186.9130 173.0843 14.81220227659849 GOMX 1 1 39430U 13066Q 26071.95784951 .00002169 00000-0 33189-3 0 9994 2 39430 97.6571 278.4593 0130067 27.0842 333.7073 14.69113007655783 HUMSAT D 1 39433U 13066T 26068.77891092 .07089284 25853-5 14695-2 0 9996 2 39433 97.4699 82.1645 0007750 211.8767 148.2059 16.31051261671486 CUBEBUG 2 1 39440U 13066AA 26071.84762697 .00006457 00000-0 60655-3 0 9998 2 39440 97.8805 20.5253 0058254 348.4702 11.5178 14.92998447662619 FUNCUBE 1 1 39444U 13066AE 26071.29535176 .00008749 00000-0 56408-3 0 9998 2 39444 97.8189 40.8783 0037634 169.9501 190.2488 15.07963577665056 UWE-3 1 39446U 13066AG 26071.40481443 .00006038 00000-0 52829-3 0 9992 2 39446 97.8588 26.9469 0048200 282.7822 76.8015 14.96214975663105 UNISAT 6 1 40012U 14033C 26071.83469446 .00003988 00000-0 43578-3 0 9996 2 40012 97.7731 226.3510 0045850 27.6310 332.7329 14.87662802631837 DUCHIFAT 1 1 40021U 14033M 26071.66947214 .00061000 00000-0 10750-2 0 9995 2 40021 98.0637 118.4490 0005901 76.2665 283.9241 15.50204280640732 QB50P1 1 40025U 14033R 26072.00901450 .00011075 00000-0 56981-3 0 9994 2 40025 98.1009 76.5163 0008726 182.5595 177.5593 15.16598426638445 OBJECT G 1 40905U 15049G 26072.00763316 .00036404 00000-0 46067-3 0 9993 2 40905 97.4717 110.7532 0005548 192.0258 168.0867 15.59410668581424 LILACSAT 2 1 40908U 15049K 26072.00530733 .00019413 00000-0 37060-3 0 9995 2 40908 97.4807 105.3453 0005912 230.1829 129.8901 15.48159742580853 LQSAT 1 40958U 15057A 26071.98743421 .00000691 00000-0 10565-3 0 9994 2 40958 97.6670 70.1501 0015844 221.4497 138.5513 14.76643712561119 CHUBUSAT 2 1 41338U 16012B 26071.83501472 .00007788 00000-0 34894-3 0 9996 2 41338 30.9966 233.2042 0008659 172.1287 187.9490 15.19802818553741 CHUBUSAT 3 1 41339U 16012C 26071.81881307 .00006634 00000-0 31560-3 0 9999 2 41339 31.0037 240.6811 0009251 163.9104 196.1831 15.17670664553543 PRATHAM 1 41783U 16059A 26071.80660529 .00001007 00000-0 18654-3 0 9991 2 41783 97.8319 72.9156 0031685 163.1224 197.1043 14.67045375505382 ALSAT 1N 1 41789U 16059G 26071.95228809 .00001251 00000-0 21957-3 0 9995 2 41789 97.8040 79.5943 0026966 133.4153 226.9304 14.69125584505871